Location: Northam
(31.6525°S, 116.6655°E)
Time: 00:13:56
(UTC+08:00)

Envisat - Pass Details

Date: 21 May 2021
Orbit: 764 x 766 km, 98.1° (Epoch: 14 June)

Event Time Altitude Azimuth Distance (km) Brightness Sun altitude
Rises 04:21:52 0° 33° (NNE) 3,218 6.7 -32.9°
Reaches altitude 10° 04:24:16 10° 40° (NE) 2,300 5.9 -32.4°
Maximum altitude 04:28:57 39° 108° (ESE) 1,154 4.2 -31.4°
Enters shadow 04:31:00 27° 153° (SSE) 1,451 4.5 -31.0°
